This is the latest recevied weather packets stored in our database for station/object K7PMV-13. If no packets are shown the sender has not sent any weather packets the latest 10 day(s).
| Time | Temp. | Humidity | Pressure | Rain* | Wind** | Luminosity | Snow |
|---|---|---|---|---|---|---|---|
| 1777845747 | 36.67° C | 17% | 1002.8 hPa | 0 mm | - | 747 W/m² | - |
| 1777845432 | 36.11° C | 17% | 1002.9 hPa | 0 mm | - | 754 W/m² | - |
| 1777845114 | 36.11° C | 17% | 1003.1 hPa | 0 mm | - | 766 W/m² | - |
| 1777844799 | 36.11° C | 17% | 1003.2 hPa | 0 mm | - | 780 W/m² | - |
| 1777844481 | 36.11° C | 18% | 1003.2 hPa | 0 mm | - | 795 W/m² | - |
| 1777844160 | 36.11° C | 17% | 1003.3 hPa | 0 mm | - | 807 W/m² | - |
| 1777843843 | 35.56° C | 18% | 1003.5 hPa | 0 mm | - | 817 W/m² | - |
| 1777843519 | 36.11° C | 18% | 1003.7 hPa | 0 mm | - | 830 W/m² | - |
| 1777843204 | 36.11° C | 18% | 1003.8 hPa | 0 mm | - | 840 W/m² | - |
| 1777842883 | 35.56° C | 17% | 1003.9 hPa | 0 mm | - | 854 W/m² | - |
| 1777842562 | 35.56° C | 18% | 1004.2 hPa | 0 mm | - | 860 W/m² | - |
| 1777842247 | 35.56° C | 18% | 1004.3 hPa | 0 mm | - | 874 W/m² | - |
| 1777841932 | 36.11° C | 17% | 1004.3 hPa | 0 mm | - | 882 W/m² | - |
| 1777841618 | 35.56° C | 18% | 1004.4 hPa | 0 mm | - | 886 W/m² | - |
| 1777841303 | 36.11° C | 19% | 1004.4 hPa | 0 mm | - | 895 W/m² | - |
| 1777840988 | 35.56° C | 18% | 1004.5 hPa | 0 mm | - | 902 W/m² | - |
| 1777840672 | 35.56° C | 20% | 1004.6 hPa | 0 mm | - | 909 W/m² | - |
| 1777840357 | 35° C | 20% | 1004.8 hPa | 0 mm | - | 912 W/m² | - |
| 1777840043 | 35.56° C | 19% | 1004.8 hPa | 0 mm | - | 914 W/m² | - |
| 1777839728 | 35° C | 19% | 1004.9 hPa | 0 mm | - | 925 W/m² | - |
| 1777839410 | 35° C | 20% | 1004.9 hPa | 0 mm | - | 928 W/m² | - |
| 1777839096 | 35° C | 20% | 1005 hPa | 0 mm | - | 933 W/m² | - |
| 1777838781 | 35.56° C | 20% | 1005.1 hPa | 0 mm | - | 937 W/m² | - |
| 1777838452 | 35.56° C | 20% | 1005.1 hPa | 0 mm | - | 942 W/m² | - |
| 1777838137 | 35° C | 20% | 1005.2 hPa | 0 mm | - | 944 W/m² | - |
* Rain latest hour (hover to see other rain measurements)
** Current wind speed in m/s (hover to see current wind gust speed)